Miscellaneous Local Product
Issued by NWS North Platte, NE

Home | Current Version | Previous Version | Text Only | Print | Product List | Glossary On
Versions: 1 2 3 4 5 6 7 8 9 10 11 12 13 14 15 16 17 18 19 20 21 22 23 24 25 26 27 28 29 30 31 32 33 34 35 36 37 38 39 40 41 42 43 44 45 46 47 48 49 50
000
AXUS43 KLBF 231410
MISLBF


WESTERN AND NORTH CENTRAL NEBRASKA HOURLY WEATHER ROUNDUP
NATIONAL WEATHER SERVICE NORTH PLATTE NE
900 AM CDT MON OCT 23 2017

NOTE: "FAIR" INDICATES FEW OR NO CLOUDS BELOW 12,000 FEET WITH NO
SIGNIFICANT WEATHER AND/OR OBSTRUCTIONS TO VISIBILITY.

NOTE: STATIONS NOT REPORTING VARIABLES SUCH AS SKY/WEATHER OR
PRESSURE ARE PROVIDED BY RAWS AND APRS NETWORKS AND ARE NOT UNDER
NATIONAL WEATHER SERVICE QUALITY CONTROL.

...OBSERVATIONS IN AND NEAR THE EASTERN PANHANDLE OF NEBRASKA...

CITY           SKY/WX    TMP DP  RH WIND       PRES   REMARKS
PINE RIDGE     CLEAR     34  28  79 W5        30.27R WCI  30
GORDON         FAIR      41  30  66 NW10      30.24R
CHADRON        CLEAR     44  22  41 W18       30.29R
ALLIANCE       CLOUDY    46  21  37 NW14      30.29R
SIDNEY         CLOUDY    45  24  43 NW16G24   30.32R
CRESCENT LAKE    N/A     48  22  35 NW14G22     N/A
$$

...OBSERVATIONS IN NORTHERN NEBRASKA AND FAR SOUTHERN SOUTH DAKOTA...

CITY           SKY/WX    TMP DP  RH WIND       PRES   REMARKS
WINNER         CLOUDY    52  33  48 NW18      30.12R
VALENTINE      PTCLDY    51  28  41 NW22G30   30.18R
THEDFORD       CLOUDY    49  28  42 NW16G24   30.22R
AINSWORTH      CLEAR     50  29  43 NW23G29   30.15R
O`NEILL        CLEAR     52  32  47 NW21G26   30.09R
ORD            MOSUNNY   54  30  40 NW18G29   30.11R
BROKEN BOW     CLOUDY    54  27  35 NW22G30   30.16R
HALSEY           N/A     50  24  36 NW9G21      N/A
BUTTE            N/A     50  34  54 NW21G35     N/A
CHAMBERS         N/A     53  30  42 W3          N/A
EWING            N/A     54  36  50 NW17G26     N/A
$$

...OBSERVATIONS IN SOUTHWEST NEBRASKA AND FAR NORTHEAST COLORADO...

CITY           SKY/WX    TMP DP  RH WIND       PRES   REMARKS
HOLYOKE        CLOUDY    52  30  43 NW22G31   30.30R
IMPERIAL       CLOUDY    48  36  63 NW10      30.28R
OGALLALA       CLOUDY    47  37  66 W3        30.27R
NORTH PLATTE   CLOUDY    49  38  65 NW9       30.22R
MCCOOK         CLOUDY    51  37  58 NW21      30.21R
LEXINGTON      CLOUDY    51  34  51 NW13      30.19R
STAPLETON        N/A     48  34  58 NW3G12      N/A
GOTHENBURG       N/A     49  33  54 W5          N/A
CALLAWAY         N/A     52  30  42 NW14        N/A
$$

...OBSERVATIONS IN CENTRAL LINCOLN COUNTY AREA...

CITY           SKY/WX    TMP DP  RH WIND       PRES   REMARKS
N.P. AIRPORT   CLOUDY    49  38  65 NW9       30.22R
N.P. DOWNTOWN    N/A     50  37  59 W3          N/A
N.P. SOUTHEAST   N/A     50  36  59 NW3         N/A
N.P. HILLCREST   N/A     50  36  59 NW9         N/A
$$

...SOME OBSERVATIONS FROM AROUND THE REGION...

CITY           SKY/WX    TMP DP  RH WIND       PRES   REMARKS
DENVER         CLOUDY    39  31  72 NE15      30.39R WCI  31
LIMON          CLOUDY    39  32  76 N16G22    30.37R WCI  30
ASPEN          CLOUDY    38  29  70 SW7       30.51S WCI  33
LARAMIE        CLOUDY    44  27  51 NW25G31   30.37R
CASPER         CLOUDY    40  17  39 NW5       30.41R
CHEYENNE       CLOUDY    33  29  85 N20G26    30.38R WCI  21
SCOTTSBLUFF    MOCLDY    47  20  34 NW15      30.34R
GRAND ISLAND   CLOUDY    58  34  40 NW25G32   30.10R
OMAHA          PTSUNNY   53  39  59 NW10      29.94R
SIOUX FALLS    MOSUNNY   52  39  61 NW18G31   29.94R
PIERRE         MOCLDY    50  37  61 NW23G35   30.08R
RAPID CITY     CLEAR     49  22  34 NW29G40   30.22R
BISMARCK       CLOUDY    46  37  71 NW18G25   30.04R
KANSAS CITY    MOSUNNY   50  42  74 SW8       29.93R
HILL CITY      CLOUDY    56  35  45 N18G32    30.18R
WICHITA        CLOUDY    51  42  71 NW9       30.01R
DODGE CITY     CLOUDY    57  35  43 N16G29    30.17R
OKLAHOMA CITY  MOSUNNY   54  39  57 SW7       30.06R
DALLAS         MOSUNNY   57  45  64 SW9       30.10R
AMARILLO       SUNNY     50  34  54 NW14      30.15R
$$




USA.gov is the U.S. government's official web portal to all federal, state and local government web resources and services.